Torna al catalogo

SL-14 DEB

AttivoPO
NORAD 26002·DEBRIS·🇷🇺 Russia

Lanciato Sep 28, 1991 da Plesetsk Cosmodrome

Loading…

Prossimi Passaggi (prossime 24 ore)

TLE

AggiornatoSource: Space-Track

Epoca: Sep 14, 2026, 03:35 UTC

1 26002U 91068M   26257.14982394  .00000402  00000-0  14952-2 0  9995
2 26002  81.9633 248.5748 0145240 111.0172  17.5038 12.86750957699041

Traccia SL-14 DEB in tempo reale con AllMySat

Download on the App Store